Temp
52 44 43 48 52 52 50 51 50 54 52 48 51 49 50 56 63 64 67 65 67 66 66 66 66 65 66 65 65 68 69 72 71 70 70 72 74 74 77 78 79 78 80 80
50 43 53 52 54 52 52 51 51 52 52 49 52 50 55 57 63 65 65 64 66 61 63 63 63 64 64 64 63 64 66 70 70 70 71 72 71 73 75 76 78 79 79 79
46 49 54 51 50 49 51 50 50 49 51 52 48 48 51 57 64 66 66 66 65 62 60 60 61 62 62 62 65 65 63 68 69 70 70 69 70 70 70 72 74 75 77 76
50 56 50 50 48 52 45 54 52 50 47 43 52 39 50 53 59 62 64 62 62 63 63 61 62 62 61 61 62 64 65 66 70 70 67 66 67 66 70 70 71 71 74 74
46 48 47 46 50 52 47 53 52 51 49 48 48 44 50 56 54 60 64 64 62 61 61 63 64 65 64 63 63 64 64 65 68 69 68 68 66 68 69 68 68 68 67 71
49 54 50 49 51 52 54 51 51 52 46 37 47 45 48 52 55 60 67 67 65 62 61 63 66 66 65 66 66 65 64 64 65 66 67 66 66 65 65 63 63 64 65 65
45 46 51 51 47 53 51 45 34 31 33 36 46 43 50 58 61 62 64 68 69 66 64 63 62 62 63 62 65 67 66 65 66 65 66 66 66 64 64 62 61 62 63 64
36 34 46 51 47 43 45 44 35 27 32 39 45 39 47 60 63 65 65 66 68 68 68 66 66 64 63 63 64 68 69 67 67 65 66 66 66 65 63 63 63 63 65 65
38 38 50 50 51 49 40 37 47 37 43 38 44 48 56 60 60 61 62 63 63 66 67 69 70 69 69 67 66 66 69 69 71 67 68 67 66 65 64 64 65 66 68 66
46 34 46 49 51 50 45 45 35 37 27 29 40 41 42 50 53 59 60 61 63 63 65 68 66 68 69 71 70 72 72 73 73 71 68 68 69 70 69 67 67 67 65 63
48 42 41 47 42 40 42 37 38 33 34 29 32 35 51 50 53 54 58 60 61 61 62 63 63 64 65 66 69 70 72 72 72 72 69 67 67 67 67 65 65 63 61 61
48 43 34 40 47 49 46 39 37 33 29 37 35 34 56 55 55 57 57 59 60 60 61 62 62 62 64 64 65 67 69 70 71 71 69 67 66 65 64 64 61 61 60 59
46 37 30 35 39 44 39 42 43 36 34 33 31 34 56 57 56 57 57 59 60 61 62 63 63 62 62 63 65 66 66 67 68 67 67 67 65 65 65 62 61 60 60 58
46 35 32 29 31 37 33 38 42 36 30 32 37 37 49 51 52 56 57 60 61 61 62 62 63 62 62 63 63 64 65 65 64 65 63 63 63 64 63 61 60 59 58 56
44 31 35 37 39 38 36 36 39 32 35 30 38 37 46 50 53 55 58 59 59 59 61 61 62 63 64 63 62 63 62 63 63 62 62 61 62 62 61 59 58 57 56 56
42 31 30 29 38 37 34 39 40 39 40 39 41 40 52 53 55 55 56 56 56 58 60 61 62 63 62 63 61 61 61 60 63 61 60 59 59 58 58 57 57 56 54 54
37 32 30 30 37 32 29 38 39 41 42 39 34 44 48 47 49 51 52 55 56 58 59 59 60 60 61 60 61 62 61 61 61 60 59 58 57 56 56 56 55 54 53 54
37 32 33 32 32 27 39 46 44 41 40 40 41 40 42 47 51 52 54 54 55 56 57 58 58 59 59 60 61 61 60 60 58 59 58 57 57 55 55 54 53 52 52 52
40 37 33 31 35 37 40 42 42 40 38 38 37 42 46 49 51 48 50 52 53 55 56 57 58 58 58 58 58 59 60 60 59 57 58 57 56 54 53 51 50 50 44 43
39 40 34 33 28 29 42 45 47 46 35 43 39 41 42 48 42 41 48 51 52 54 54 54 56 58 58 57 57 56 57 58 58 59 58 58 56 55 52 51 49 48 43 40
32 33 31 35 32 39 47 47 48 33 36 45 45 43 43 41 42 45 49 50 51 50 51 52 54 55 55 54 54 54 55 55 58 58 58 57 56 53 52 46 48 45 42 44
36 33 33 35 30 30 49 45 39 45 48 48 46 45 44 46 48 47 48 49 50 49 48 49 49 51 51 51 51 51 51 54 54 55 54 54 54 52 50 48 45 45 46 44
35 43 41 41 42 48 51 49 50 49 48 47 46 47 47 46 47 49 49 49 51 51 51 51 50 48 48 49 49 47 50 52 52 53 53 53 53 51 49 47 44 44 46 46
42 46 40 40 48 47 48 49 50 49 47 47 47 47 47 45 47 48 49 50 49 51 50 50 50 49 49 49 49 49 49 51 51 52 53 53 52 50 50 47 44 45 46 46
46 43 42 43 47 45 47 49 49 46 45 45 47 46 45 45 45 48 48 50 48 50 50 49 48 46 46 48 48 48 48 50 50 51 51 51 51 49 48 46 44 45 47 48
45 45 41 45 51 49 47 49 47 44 44 45 44 44 46 46 45 47 48 50 48 46 47 46 45 45 46 47 47 46 47 47 49 48 48 48 45 43 42 41 39 42 43 44
MSLP
1009.31 1009.11 1008.04 1007.43 1007.17 1006.04 1005.32 1003.93 1003.44 1003.31 1004.61 1005.16 1004.46 1004.28 1004.12 1003.27 1002.04 1001.13 1000.84 1001.22 1001.67 1002.79 1004.48 1005.69 1006.53 1006.98 1007.27 1007.37 1005.71 1007.73 1008.62 1009.50 1009.99 1010.64 1011.02 1011.55 1011.93 1012.49 1012.80 1013.22 1013.67 1014.11 1014.46 1014.97
1008.45 1007.80 1007.21 1007.37 1006.59 1005.73 1004.51 1003.36 1002.91 1003.39 1004.02 1004.56 1003.54 1003.16 1002.95 1002.45 1001.26 1000.97 1000.91 1001.28 1001.99 1003.69 1004.73 1005.83 1006.73 1007.09 1006.95 1007.70 1007.91 1008.13 1008.68 1008.93 1009.77 1010.40 1010.99 1011.54 1012.09 1012.47 1012.96 1013.43 1013.65 1013.99 1014.33 1014.76
1007.79 1007.55 1007.36 1007.00 1006.22 1005.26 1004.23 1003.40 1002.98 1003.32 1003.64 1003.84 1003.68 1002.14 1002.02 1001.48 1000.72 1000.87 1001.09 1001.60 1002.35 1003.22 1004.13 1005.59 1006.45 1006.86 1007.32 1007.84 1008.41 1008.69 1008.84 1007.69 1009.51 1010.20 1011.03 1011.68 1012.43 1012.92 1013.46 1013.77 1013.98 1014.17 1014.45 1014.77
1007.70 1007.19 1007.44 1007.01 1006.33 1005.60 1004.54 1004.17 1003.82 1003.66 1003.41 1002.51 1002.81 1001.41 1001.03 1000.70 1000.44 1000.64 1001.14 1001.95 1002.56 1003.64 1004.37 1004.83 1006.30 1006.90 1006.84 1008.04 1008.49 1009.07 1009.34 1009.62 1009.67 1010.33 1011.01 1011.29 1011.92 1012.54 1013.28 1013.77 1014.30 1014.53 1014.73 1014.93
1007.83 1007.83 1007.64 1007.12 1006.41 1006.37 1005.33 1004.93 1004.37 1003.76 1003.27 1002.77 1002.03 1001.67 999.86 1000.30 999.94 999.98 1000.30 1001.40 1002.38 1003.13 1003.64 1004.35 1005.44 1006.25 1007.08 1007.90 1008.29 1008.01 1009.81 1010.24 1010.25 1010.72 1011.18 1011.59 1012.03 1012.38 1012.82 1013.53 1014.34 1014.95 1015.37 1015.41
1008.44 1008.56 1008.42 1007.73 1007.40 1006.89 1006.26 1005.46 1004.67 1004.17 1003.98 1003.00 1001.75 1001.56 999.99 1000.00 999.91 999.66 999.87 1000.75 1001.88 1003.17 1004.10 1004.50 1004.70 1005.29 1006.38 1006.98 1007.88 1008.55 1009.31 1009.99 1010.55 1010.67 1011.17 1011.48 1011.83 1012.25 1013.00 1013.63 1013.99 1014.58 1015.11 1015.41
1008.75 1008.38 1008.41 1008.43 1007.45 1006.67 1006.52 1006.03 1005.17 1004.90 1004.22 1002.96 1002.74 1001.82 1000.54 1000.19 1000.08 999.82 1000.04 1000.27 1001.05 1002.40 1003.39 1003.82 1004.42 1005.22 1005.86 1006.43 1006.59 1007.85 1008.57 1008.95 1009.60 1010.11 1010.25 1010.90 1011.41 1011.94 1012.10 1012.61 1012.48 1013.16 1014.39 1015.25
1008.69 1008.18 1008.48 1008.49 1008.10 1007.64 1007.15 1006.89 1006.28 1005.32 1004.39 1002.96 1003.27 1002.07 1001.30 1001.27 1001.09 1001.06 1001.40 1001.27 1001.70 1002.35 1002.81 1003.52 1004.23 1005.03 1005.59 1006.04 1006.38 1006.71 1007.60 1008.44 1008.96 1009.61 1009.94 1010.36 1010.98 1011.02 1010.65 1012.26 1011.96 1013.30 1014.49 1014.64
1008.98 1008.59 1008.86 1008.84 1008.66 1008.63 1008.33 1007.88 1007.50 1006.92 1005.72 1004.37 1003.10 1002.74 1002.21 1001.73 1001.84 1001.95 1002.08 1002.24 1002.65 1002.76 1002.89 1003.42 1004.28 1004.93 1005.30 1005.74 1006.16 1006.57 1007.25 1007.52 1008.14 1008.52 1009.33 1009.86 1010.23 1010.86 1011.38 1011.94 1012.91 1013.34 1013.58 1013.84
1009.76 1009.50 1009.31 1009.06 1008.92 1008.91 1008.97 1009.38 1008.64 1008.14 1007.46 1005.59 1003.98 1003.59 1003.12 1003.12 1003.17 1002.74 1002.83 1002.85 1003.19 1003.93 1003.98 1004.17 1004.92 1005.14 1005.29 1005.25 1005.81 1006.17 1006.76 1007.21 1007.24 1007.99 1008.65 1009.27 1009.44 1010.11 1010.65 1011.50 1011.84 1012.56 1013.11 1013.36
1010.43 1010.39 1009.85 1009.62 1009.52 1009.46 1009.37 1009.88 1010.24 1010.28 1009.35 1007.34 1005.43 1005.76 1005.26 1004.69 1004.36 1003.65 1003.55 1003.90 1004.23 1004.71 1005.10 1005.33 1005.61 1005.72 1005.68 1005.48 1005.68 1006.21 1006.50 1006.89 1007.15 1007.63 1008.43 1009.04 1009.51 1010.01 1010.46 1010.98 1011.67 1012.22 1012.97 1013.31
1011.53 1011.30 1010.89 1010.25 1010.58 1010.64 1010.59 1010.94 1011.21 1010.81 1010.23 1008.89 1007.68 1007.36 1006.17 1005.48 1005.03 1004.53 1004.48 1004.74 1004.89 1005.30 1005.63 1005.70 1005.50 1005.52 1005.50 1005.85 1006.11 1006.78 1007.15 1006.96 1007.30 1007.83 1008.41 1008.97 1009.71 1010.27 1010.78 1011.05 1011.70 1012.45 1013.11 1013.67
1012.62 1012.46 1011.77 1010.85 1011.39 1011.47 1011.58 1011.68 1011.60 1011.78 1011.56 1009.85 1008.57 1007.94 1006.84 1006.34 1005.93 1005.68 1005.29 1004.94 1005.13 1005.14 1005.57 1005.69 1005.95 1005.81 1006.03 1006.12 1006.40 1006.99 1007.57 1007.54 1007.93 1008.02 1008.21 1009.06 1009.82 1010.31 1010.86 1011.23 1011.95 1012.71 1013.28 1013.78
1013.66 1013.60 1013.43 1012.73 1012.68 1012.96 1012.60 1012.38 1012.28 1012.45 1011.88 1011.02 1009.53 1008.76 1007.51 1007.54 1007.37 1006.99 1006.50 1006.21 1006.14 1006.22 1006.25 1006.42 1006.51 1006.86 1006.96 1007.16 1007.11 1007.31 1007.52 1007.95 1008.67 1008.74 1009.02 1009.51 1009.99 1010.36 1010.72 1011.33 1011.96 1012.53 1013.22 1013.94
1014.13 1014.40 1014.23 1013.84 1013.50 1013.32 1012.99 1012.64 1012.37 1012.66 1012.53 1011.86 1010.57 1009.83 1008.93 1008.62 1008.16 1008.08 1007.54 1007.12 1006.91 1007.21 1006.99 1006.92 1007.06 1007.05 1007.16 1007.38 1007.64 1007.94 1008.46 1008.83 1008.92 1009.02 1009.30 1009.73 1010.13 1010.53 1011.10 1011.76 1012.18 1012.94 1013.61 1014.10
1014.99 1015.07 1015.11 1014.37 1013.79 1013.41 1012.84 1012.49 1012.44 1012.45 1012.30 1011.91 1011.13 1010.20 1009.30 1009.38 1009.10 1008.82 1008.56 1008.46 1008.12 1007.69 1007.63 1007.72 1007.86 1007.75 1007.73 1008.18 1008.37 1008.50 1008.85 1008.94 1009.15 1009.33 1009.57 1010.05 1010.59 1011.32 1011.74 1012.12 1012.45 1012.90 1013.70 1014.38
1015.41 1015.46 1015.18 1014.16 1013.65 1013.51 1012.93 1012.27 1012.35 1012.30 1012.25 1012.47 1011.85 1011.06 1010.91 1010.41 1010.11 1009.91 1009.64 1009.32 1009.11 1008.88 1008.59 1008.46 1008.35 1008.37 1008.72 1008.65 1008.81 1008.81 1008.78 1009.04 1009.40 1009.64 1009.91 1010.43 1010.98 1011.68 1012.28 1012.63 1013.06 1013.44 1014.07 1014.60
1015.63 1015.63 1015.10 1014.08 1013.51 1012.64 1012.10 1012.22 1012.27 1012.32 1012.86 1013.09 1012.86 1012.65 1012.23 1011.38 1010.94 1010.84 1010.64 1010.43 1010.00 1009.76 1009.54 1009.28 1009.06 1009.20 1009.27 1009.19 1009.07 1009.41 1009.61 1009.63 1009.98 1010.02 1010.39 1010.86 1011.42 1011.67 1012.24 1012.81 1013.33 1014.00 1014.59 1015.05
1015.96 1015.43 1014.76 1013.89 1012.57 1012.06 1011.66 1012.05 1012.15 1012.21 1012.59 1013.37 1013.54 1013.05 1012.52 1011.78 1011.36 1011.56 1011.82 1011.70 1011.31 1011.08 1010.93 1010.79 1010.71 1010.42 1010.04 1009.85 1009.79 1009.80 1009.78 1009.91 1010.09 1010.27 1010.44 1010.80 1011.43 1011.90 1012.34 1012.89 1013.31 1013.91 1014.54 1014.95
1015.85 1015.47 1014.85 1013.78 1012.62 1011.26 1010.83 1011.74 1012.28 1012.48 1012.22 1013.05 1013.77 1013.67 1013.39 1012.38 1011.61 1012.34 1012.51 1012.20 1011.98 1011.83 1011.78 1011.78 1011.57 1011.27 1011.14 1011.20 1010.93 1010.52 1010.15 1010.11 1009.89 1010.04 1010.22 1010.53 1011.05 1011.52 1012.07 1012.78 1013.38 1014.30 1015.08 1015.41
1015.10 1014.76 1014.02 1013.00 1012.22 1010.99 1010.96 1011.77 1012.23 1012.33 1012.75 1013.03 1013.40 1013.87 1013.84 1013.30 1013.46 1013.31 1012.97 1012.74 1012.51 1012.40 1012.20 1012.00 1011.59 1011.52 1011.74 1011.89 1011.86 1011.59 1011.20 1010.58 1010.13 1010.02 1010.06 1010.35 1010.78 1011.42 1011.88 1012.79 1013.56 1014.36 1015.04 1015.36
1013.50 1013.44 1012.97 1012.61 1012.06 1011.12 1011.28 1012.04 1011.97 1012.07 1012.34 1012.93 1013.43 1013.89 1013.89 1013.51 1013.32 1013.31 1013.09 1012.78 1012.49 1012.31 1012.32 1012.34 1012.09 1012.09 1012.12 1012.05 1011.92 1011.58 1011.17 1010.89 1010.83 1010.84 1010.69 1010.39 1010.66 1011.45 1012.14 1012.52 1013.80 1014.66 1014.82 1015.31
1012.88 1012.17 1011.89 1011.71 1010.83 1011.04 1011.12 1011.43 1011.86 1012.42 1012.56 1013.18 1013.68 1013.83 1013.93 1013.75 1013.51 1013.38 1013.20 1013.08 1012.71 1012.60 1012.65 1012.62 1012.39 1012.28 1012.21 1012.21 1012.21 1011.84 1011.56 1011.23 1010.95 1010.68 1010.78 1010.99 1011.19 1011.63 1012.10 1012.94 1013.77 1013.99 1014.63 1014.86
1012.35 1012.29 1012.07 1011.62 1010.40 1011.05 1011.44 1011.93 1012.25 1012.76 1013.22 1013.76 1013.99 1014.07 1014.09 1013.85 1013.64 1013.36 1013.17 1013.05 1013.01 1012.73 1012.70 1012.85 1012.79 1012.58 1012.46 1012.53 1012.46 1012.28 1012.08 1011.58 1011.22 1010.98 1010.84 1011.01 1011.19 1011.48 1011.94 1012.76 1013.50 1013.65 1014.06 1014.46
1011.80 1012.03 1011.27 1010.73 1010.54 1011.38 1011.57 1011.88 1012.37 1013.26 1013.89 1014.06 1014.15 1014.21 1014.08 1014.02 1013.66 1013.50 1013.30 1013.06 1013.14 1012.90 1012.91 1013.00 1013.10 1013.08 1013.03 1012.93 1012.76 1012.66 1012.40 1011.83 1011.29 1011.14 1011.06 1011.23 1011.59 1012.00 1012.45 1013.08 1013.68 1013.83 1014.07 1014.35
1010.73 1010.06 1010.19 1009.45 1009.76 1010.61 1011.28 1011.94 1012.97 1013.49 1013.81 1014.02 1014.19 1014.17 1013.98 1013.92 1013.68 1013.51 1013.05 1012.92 1013.25 1013.37 1013.35 1013.25 1013.32 1013.22 1013.14 1013.07 1012.98 1012.89 1012.60 1012.19 1011.81 1011.63 1011.61 1011.85 1012.38 1012.82 1013.02 1013.45 1014.11 1014.44 1014.63 1014.67
Wind_Speed
6 6 9 4 9 13 11 12 14 1 6 5 9 6 7 12 7 10 11 11 15 15 15 14 12 12 11 6 5 14 16 15 9 9 8 8 8 6 5 6 11 10 8 11
6 9 5 7 12 11 10 9 6 3 1 4 7 10 11 8 9 9 10 13 15 13 15 14 11 7 8 7 3 4 8 16 12 8 8 6 5 5 6 4 5 5 6 6
10 7 7 8 12 9 5 10 4 9 3 8 9 15 10 8 9 7 8 10 17 17 16 9 10 9 6 6 4 3 1 9 9 10 7 7 6 5 3 5 4 5 6 5
9 5 6 9 11 8 15 4 7 5 7 2 3 5 13 12 14 13 12 12 12 14 14 15 12 16 19 14 8 7 8 9 8 12 7 12 6 7 4 4 3 4 6 7
3 7 8 10 9 8 6 9 10 9 9 8 5 6 9 12 13 15 14 12 12 10 8 17 19 16 16 14 15 13 11 10 11 12 8 5 5 5 6 6 3 3 2 3
11 4 5 9 11 9 11 10 8 7 4 5 3 3 9 9 12 13 15 16 15 14 12 10 11 12 15 12 12 14 13 12 9 8 10 10 8 9 8 6 5 2 2 2
5 3 4 5 10 8 10 10 3 3 4 2 5 4 7 6 4 5 9 11 13 16 14 13 11 9 9 10 15 15 18 19 17 15 14 11 11 12 12 7 4 2 5 7
5 0 6 8 6 8 10 9 6 5 2 1 3 2 5 3 6 5 2 3 6 8 11 12 12 11 11 12 10 14 16 16 15 14 14 11 9 3 4 4 4 8 11 9
6 2 3 4 8 7 4 5 9 6 3 3 5 4 9 13 7 1 2 2 1 3 5 8 11 12 12 13 13 12 13 18 20 21 18 19 13 11 11 16 14 12 12 8
5 6 2 5 7 1 4 1 3 1 3 5 6 1 9 13 11 8 6 3 7 3 1 6 5 4 4 7 10 12 14 13 11 12 8 9 12 13 16 13 15 13 7 5
7 2 3 6 6 9 4 4 4 2 5 4 2 8 8 10 9 8 5 8 8 8 6 4 4 5 4 2 3 5 8 10 10 10 11 10 8 7 7 7 7 7 5 6
6 6 5 9 6 5 6 5 5 4 5 2 3 5 9 12 11 7 8 7 7 8 7 7 7 5 4 6 6 6 7 8 8 10 10 10 9 8 7 6 6 7 6 6
7 1 5 5 3 8 5 5 6 2 3 4 4 4 13 15 15 12 10 10 10 10 10 10 9 8 4 4 6 8 5 4 5 8 10 10 9 10 10 10 9 8 9 8
4 1 3 6 6 5 7 8 7 5 3 6 5 3 12 15 16 13 10 10 11 11 11 10 9 8 6 6 7 6 6 7 6 6 7 9 9 8 8 9 9 9 9 9
2 0 4 5 5 6 8 8 8 1 5 3 7 10 11 12 11 11 9 9 10 12 13 11 9 8 9 8 7 7 6 7 7 7 7 6 6 6 7 8 9 9 9 9
4 2 1 2 5 4 1 4 5 7 8 8 9 9 8 10 10 8 7 6 8 11 12 11 9 9 8 8 7 5 6 6 5 7 7 6 6 5 6 7 8 9 8 8
2 2 2 3 4 2 2 2 0 2 2 4 6 7 13 12 11 10 10 9 7 9 10 9 9 8 8 8 6 6 5 5 5 5 7 7 8 7 6 7 7 7 8 8
3 2 2 2 3 1 4 1 1 1 0 4 7 8 9 10 10 7 10 10 9 9 9 10 9 8 8 8 7 5 3 2 2 3 5 6 8 9 9 9 8 8 7 7
3 3 1 3 3 2 5 4 3 4 5 4 4 7 9 11 6 12 13 11 10 10 8 7 7 7 8 8 9 7 4 1 3 4 5 7 7 8 8 8 8 7 5 5
2 1 3 3 3 2 6 5 1 2 7 9 4 5 9 11 4 7 14 12 11 9 8 8 7 6 4 5 7 8 8 7 6 4 4 5 6 7 8 8 8 6 5 5
2 2 5 4 4 3 5 5 4 4 5 7 6 2 4 4 3 8 9 11 9 6 9 8 9 7 6 6 6 6 6 8 8 6 4 4 6 6 7 8 7 7 8 7
5 5 4 3 4 4 10 6 5 5 2 3 3 4 6 6 6 6 8 9 8 7 7 7 7 7 7 8 7 7 6 5 6 6 7 6 5 5 6 9 8 8 8 8
5 3 2 5 2 4 10 3 3 2 3 2 2 2 4 7 7 7 7 9 8 6 6 6 6 5 5 7 8 8 7 7 5 5 7 8 7 7 7 8 8 7 8 6
6 5 4 3 5 9 8 5 4 2 2 2 3 5 7 9 9 9 8 7 8 6 4 4 6 5 5 6 6 7 8 7 4 5 5 6 8 8 7 6 5 5 6 6
3 9 7 9 9 2 7 7 5 4 3 5 5 8 9 9 11 11 9 8 7 7 4 4 4 3 4 5 6 7 8 7 3 1 3 5 6 7 7 6 6 6 6 5
9 10 7 3 4 2 4 5 4 4 5 4 5 7 8 8 9 10 9 7 5 5 4 3 3 4 5 6 7 8 9 8 5 2 1 3 3 3 3 4 3 1 3 3
Wind_Direction
193 248 248 223 279 289 290 273 263 189 131 244 241 256 220 276 215 225 194 204 170 174 161 165 181 187 191 186 234 161 171 176 154 151 153 161 164 159 167 173 182 184 189 190
235 266 272 311 293 289 281 271 255 62 136 255 297 281 215 219 218 204 197 204 161 136 155 164 169 180 159 189 227 128 190 167 163 155 150 152 144 149 158 158 176 187 195 207
272 274 324 292 295 288 282 300 350 319 149 240 277 253 199 185 205 174 191 185 166 155 143 153 148 168 113 124 252 231 326 164 150 157 149 135 122 115 140 161 168 175 191 187
275 337 292 287 285 314 299 14 297 293 267 325 327 327 184 169 193 185 174 175 183 182 172 152 195 183 155 148 249 177 218 233 164 153 165 152 156 140 148 165 179 181 204 203
293 328 327 283 300 327 311 324 296 290 281 314 178 266 129 166 200 188 181 176 176 177 187 173 190 180 168 172 199 182 189 208 208 184 149 166 157 148 141 128 107 100 257 265
287 305 288 321 310 282 301 276 254 270 250 270 25 285 136 187 196 195 190 171 169 171 176 200 196 179 182 173 174 172 183 198 191 192 182 186 185 167 158 160 154 201 193 231
312 321 305 292 293 242 262 278 250 212 228 287 41 290 11 27 347 193 194 175 164 172 176 173 179 180 186 189 180 186 189 195 196 211 225 212 199 183 169 156 158 12 269 231
342 241 1 4 313 314 308 287 277 277 304 123 108 233 49 38 358 112 58 330 129 182 179 171 178 180 188 200 212 190 197 206 200 201 222 232 221 213 86 213 215 209 240 237
339 29 326 329 328 329 352 268 333 304 287 316 132 139 80 48 51 266 243 102 213 184 221 191 172 182 184 186 195 189 209 216 207 202 206 216 218 197 201 208 223 216 222 218
18 301 54 336 306 179 307 83 306 253 260 232 135 108 50 29 14 17 60 52 90 79 169 173 181 181 179 176 186 189 187 208 183 179 197 195 212 198 198 197 207 213 215 174
328 318 3 279 21 347 2 30 11 174 289 317 341 68 9 14 2 338 21 56 70 68 66 114 135 139 159 173 149 195 192 189 185 171 175 178 174 165 165 176 178 165 159 155
24 313 303 357 18 348 46 71 19 349 6 357 285 68 54 41 34 28 28 44 59 69 60 63 72 88 120 157 162 198 193 176 181 169 164 167 158 160 173 146 131 147 155 160
4 80 291 175 146 70 26 36 30 117 277 338 345 91 49 36 51 35 30 31 44 41 51 56 55 59 75 118 156 169 175 151 156 157 161 160 160 168 168 153 154 158 153 143
287 12 307 311 335 335 311 321 331 32 321 333 347 299 65 38 25 29 31 50 51 42 34 48 69 85 89 112 130 136 130 131 160 152 144 159 163 158 150 145 147 142 141 138
15 23 331 309 338 312 269 276 297 219 262 303 340 316 321 345 355 8 34 34 38 34 30 30 30 46 72 86 91 109 124 142 147 139 141 138 137 125 128 137 135 134 141 139
352 106 338 279 348 349 220 258 267 280 277 290 292 303 5 5 351 354 22 17 3 1 8 16 22 28 39 61 71 88 115 111 128 128 122 118 117 121 130 133 136 134 133 133
57 131 280 63 28 347 142 58 91 308 335 319 286 346 340 330 335 335 329 335 342 353 359 7 14 21 27 32 22 41 72 108 131 139 134 143 142 142 141 137 139 134 139 141
139 124 282 339 269 351 99 81 221 284 7 294 296 314 313 317 328 19 21 1 0 12 17 15 8 6 7 4 15 21 39 87 121 155 155 162 167 156 154 153 150 149 150 150
50 307 340 315 312 16 167 190 211 248 225 202 275 299 334 328 169 69 24 6 6 8 13 11 14 358 343 350 347 338 325 267 224 214 190 173 175 165 161 166 158 154 133 128
258 249 300 344 288 275 79 140 117 236 254 174 209 323 332 340 246 30 355 351 352 357 4 3 357 340 351 3 336 322 312 300 278 253 217 186 184 179 170 164 149 134 126 117
167 248 237 231 284 278 143 132 157 243 68 164 188 250 323 343 354 313 333 346 344 342 341 342 355 348 358 347 326 294 281 279 296 305 286 215 195 179 151 134 138 137 150 156
206 187 202 201 241 252 146 132 229 66 139 185 183 250 274 297 307 304 322 330 343 344 336 338 333 339 344 349 338 324 311 324 298 268 251 234 204 164 147 153 148 164 159 160
246 238 330 234 29 86 181 325 55 342 286 165 256 223 285 291 299 321 329 322 334 336 332 328 328 326 351 355 351 332 335 318 298 261 238 214 195 174 165 160 162 162 169 173
232 207 241 305 184 218 211 212 273 222 258 150 264 287 295 293 298 302 308 326 319 331 346 337 326 344 359 354 347 345 331 322 293 248 211 201 194 173 168 152 162 179 178 185
2 154 220 252 259 223 232 216 208 181 210 258 281 293 292 295 289 283 292 307 318 326 328 331 332 346 352 348 359 360 348 335 325 236 155 176 186 177 165 167 181 200 194 207
187 199 198 244 127 173 84 152 150 199 261 289 299 303 299 300 294 282 274 289 308 308 315 297 312 334 350 356 7 2 357 356 343 55 132 136 142 148 142 142 140 69 157 156